Погода в Груни

Украина / Сумская область     50°14′16″N   34°36′08″E
темп.,
°C
ветер,
м/с
пор.,
м/с
влажн.,
%
обл.,
%
осадки,
мм/ч
давл.,
гПа
погр.,
м
1 августа, вс
вс100:00+21в11560 0.0 101111
03:00+21юв22580 0.0 101211
06:00+20юв35610 0.0 101178
09:00+27ю354651 0.0 1012441
12:00+32ююз453257 0.0 10112828
15:00+32юз3531100 0.0 10101781
18:00+31зсз343342 0.0 1010610
21:00+27вюв224111 0.0 101032
2 августа, пн
пн200:00+24ю411490 0.0 1010169
03:00+24ююз5135018 0.0 1010266
06:00+22ююз376312 0.0 1010131
09:00+28ю5849100 0.0 1010535
12:00+33ююз78356 0.0 10082055
15:00+35юз8927100 0.0 10073634
18:00+20зюз121990100 4.7 1010640
21:00+21ююв4578100 10.2 100763
3 августа, вт
вт300:00+19зюз41289100 1.1 1009434
03:00+18з49964 1.1 1010226
06:00+18зсз489851 0.0 1011357
09:00+20сз45759 0.0 1012637
12:00+24сз5552100 0.0 10131429
15:00+26ссз4542100 0.0 10122304
18:00+24с1250100 0.0 101333
21:00+22ссз494917 0.0 1014314
4 августа, ср
ср400:00+18ссз33654 0.0 101638
03:00+18с2364100 0.0 101764
06:00+18сз2360100 0.0 101780
09:00+20сз2455100 0.0 1018299
12:00+25зсз343526 0.0 10182159
15:00+27зсз3430100 0.0 10172614
18:00+26сз233691 0.0 10171091
21:00+20зсз115041 0.0 101811
5 августа, чт
чт500:00+18з115761 0.0 101811
03:00+17юв225621 0.0 101817
06:00+17юв2258100 0.0 101836
09:00+20юв245091 0.0 1018126
12:00+24юв2443100 0.0 1017373
15:00+28ююз144097 0.0 1015723
18:00+24сз1152100 0.1 101511
21:00+21в34555 0.1 101448